User: anonymous   Login
Location: Onan Observatory
(44.8103°N, 93.9397°W)
Time: 01:58:39
(UTC-05:00)
Language:

Iridium 90 - Orbit

View from above orbital plane
View from above orbital plane
View from above satellite
View from above satellite

Ground track
Ground track

The orbit data is extracted from the following two-line orbital elements,

1 27373U 02005B   14303.32464678  .00000929  00000-0  27193-3 0  5407
2 27373 086.4509 031.6916 0001563 058.5962 301.5391 14.42962979672798
Epoch (UTC): 30 October 2014 07:47:29
Eccentricity: 0.0001563
inclination: 86.4509°
perigee height: 747 km
apogee height: 750 km
right ascension of ascending node: 31.6916°
argument of perigee: 58.5962°
revolutions per day: 14.42962979
mean anomaly at epoch: 301.5391°
orbit number at epoch: 67279

The dashed part of the orbit path shows where the satellite is in the earth's shadow,  

DLR